Stations météo

réclame
Mon MeteoGroup
La Hague, France (7020): Température de l'air & dewpoint: 23.01.2020 01:00:00 - 29.01.2020 01:00:00 (CET)La Hague, France (7020): Vitesse du vent & gusts: 23.01.2020 01:00:00 - 29.01.2020 01:00:00 (CET)La Hague, France (7020): Direction du vent: 23.01.2020 01:00:00 - 29.01.2020 01:00:00 (CET)La Hague, France (7020): reduced air pressure: 23.01.2020 01:00:00 - 29.01.2020 01:00:00 (CET)La Hague, France (7020): visibility: 23.01.2020 01:00:00 - 29.01.2020 01:00:00 (CET)La Hague, France (7020): Quantités de précipitations: 23.01.2020 01:00:00 - 29.01.2020 01:00:00 (CET)
Date & Time tt [°C] td [°C] ff [km/h] ff [knt] fx [km/h] fx [knt] dd ppp [hPa] vv [km] rr [mm]
29.01.2020 01:00:00 9,0 3,6 37 20 55 30 W 1008,0 12 0,0
29.01.2020 00:00:00 8,8 4,4 37 20 65 35 W 1007,5 - 0,0
28.01.2020 23:00:00 8,7 3,7 42 23 63 34 W 1007,0 - 0,0
28.01.2020 22:00:00 8,7 3,1 43 23 66 36 W 1006,1 12 0,0
28.01.2020 21:00:00 8,8 3,0 45 24 67 36 W 1005,7 - 0,0
28.01.2020 20:00:00 8,4 3,2 50 27 75 41 W 1004,8 - 0,0
28.01.2020 19:00:00 7,9 3,4 46 25 72 39 W 1004,2 10 0,0
28.01.2020 18:00:00 7,2 3,1 42 23 88 47 W 1003,0 - 0,0
28.01.2020 17:00:00 8,4 4,6 35 19 70 38 W 1002,5 - 0,0
28.01.2020 16:00:00 7,7 5,0 42 23 - - W 1001,8 - -
28.01.2020 15:00:00 9,1 4,7 45 25 74 40 WSW 1001,4 - 0,0
28.01.2020 14:00:00 9,8 5,0 45 25 64 35 WSW 1001,8 - 0,0
28.01.2020 13:00:00 7,8 3,6 42 23 71 38 WSW 1002,6 14 0,0
28.01.2020 12:00:00 8,4 3,4 46 25 66 36 W 1002,4 - 0,0
28.01.2020 11:00:00 8,1 3,2 44 24 67 36 W 1001,6 - 0,0
28.01.2020 10:00:00 7,6 2,5 43 23 70 38 W 1000,6 12 0,6
28.01.2020 09:00:00 6,6 3,0 49 27 73 39 W 1000,0 - 0,0
28.01.2020 08:00:00 7,1 3,2 44 24 72 39 W 998,7 - 0,0
28.01.2020 07:00:00 6,3 2,4 50 27 95 51 W 997,4 10 0,0
28.01.2020 06:00:00 6,9 3,0 53 29 85 46 W 996,4 - 0,0
28.01.2020 05:00:00 7,6 3,3 50 27 76 41 W 995,2 - 0,0
28.01.2020 04:00:00 7,8 1,8 50 27 80 43 W 994,9 10 0,0
28.01.2020 03:00:00 8,1 2,7 49 26 79 43 W 994,3 - 0,4
28.01.2020 02:00:00 7,9 2,6 47 25 76 41 WSW 994,0 - 0,4
28.01.2020 01:00:00 5,8 4,4 50 27 96 52 W 994,0 10 3,4
28.01.2020 00:00:00 9,2 5,2 48 26 67 36 SW 994,0 - 0,0
27.01.2020 23:00:00 9,6 5,9 44 24 71 39 SW 994,8 - 0,0
27.01.2020 22:00:00 9,3 6,4 43 23 67 36 SW 995,8 12 0,0
27.01.2020 21:00:00 8,7 6,1 51 28 71 38 SW 996,2 - 0,2
27.01.2020 20:00:00 9,2 6,5 42 23 56 30 SW 996,8 - 0,0
27.01.2020 19:00:00 8,2 5,7 33 18 46 25 SW 997,3 12 0,0
27.01.2020 18:00:00 7,6 5,7 27 14 57 31 WSW 997,5 - 1,8
27.01.2020 17:00:00 9,1 7,0 33 18 53 29 SW 998,0 - 0,0
27.01.2020 16:00:00 8,7 6,3 32 17 45 24 SW 998,6 14 0,2
27.01.2020 15:00:00 7,7 5,3 35 19 71 38 SW 999,3 - 2,1
27.01.2020 14:00:00 8,5 7,6 38 21 61 33 SW 1000,7 - 4,0
27.01.2020 13:00:00 10,0 7,9 36 19 52 28 SSW 1001,9 12 0,0
27.01.2020 12:00:00 10,2 8,3 35 19 53 28 SSW 1003,2 - 0,0
27.01.2020 11:00:00 9,9 8,3 36 20 50 27 SSW 1003,8 - 0,0
27.01.2020 10:00:00 8,8 6,9 34 18 49 26 SSW 1004,7 12 0,0
27.01.2020 09:00:00 9,1 6,7 35 19 62 34 SSW 1005,2 - 0,4
27.01.2020 08:00:00 10,0 8,3 37 20 55 30 SSW 1005,3 - 0,0
27.01.2020 07:00:00 9,8 8,1 33 18 49 26 SSW 1005,6 12 0,0
27.01.2020 06:00:00 9,7 8,1 32 18 50 27 SSW 1006,4 - 0,0
27.01.2020 05:00:00 9,7 8,3 30 16 42 23 SSW 1006,6 - 0,0
27.01.2020 04:00:00 9,8 8,2 32 18 48 26 SSW 1007,3 12 0,0
27.01.2020 03:00:00 9,9 8,5 31 17 48 26 SSW 1007,7 - 0,0
27.01.2020 02:00:00 10,1 8,5 29 16 42 23 SW 1007,9 - 0,0
27.01.2020 01:00:00 10,1 8,5 34 19 50 27 SW 1008,1 12 0,0
27.01.2020 00:00:00 10,0 8,9 26 14 37 20 SW 1008,1 - 0,0
26.01.2020 23:00:00 9,9 8,8 31 17 38 21 SW 1008,3 - 0,0
26.01.2020 22:00:00 9,9 9,1 23 12 31 17 SW 1008,3 20 0,0
26.01.2020 21:00:00 9,8 8,9 21 12 34 18 SW 1008,3 - 0,0
26.01.2020 20:00:00 10,0 9,2 28 15 46 25 SW 1008,2 - 0,0
26.01.2020 19:00:00 10,1 9,5 32 18 68 37 SSW 1008,0 4,0 0,4
26.01.2020 18:00:00 10,1 9,2 35 19 59 32 SSW 1008,0 - 1,4
26.01.2020 17:00:00 10,3 8,9 38 21 76 41 S 1008,2 - 0,4
26.01.2020 16:00:00 10,3 8,9 42 23 62 34 S 1008,7 10 0,0
26.01.2020 15:00:00 10,1 8,7 36 19 56 30 S 1009,7 - 0,6
26.01.2020 14:00:00 10,3 8,6 35 19 56 30 S 1010,5 - 0,0
26.01.2020 13:00:00 10,1 8,2 36 20 57 31 SSW 1011,3 20 0,0
26.01.2020 12:00:00 9,9 8,0 33 18 47 25 SSW 1012,2 - 0,2
26.01.2020 11:00:00 9,8 7,9 30 16 44 24 S 1012,6 - 0,0
26.01.2020 10:00:00 9,7 8,1 30 16 42 23 SSW 1012,6 20 0,0
26.01.2020 09:00:00 9,5 7,9 24 13 36 19 SSW 1012,4 - 0,0
26.01.2020 08:00:00 9,4 7,7 23 12 37 20 SSW 1012,5 - 0,0
26.01.2020 07:00:00 9,3 7,9 27 15 40 21 SSW 1012,5 10 0,0
26.01.2020 06:00:00 8,8 7,9 26 14 37 20 SSW 1012,8 - 0,0
26.01.2020 05:00:00 8,3 7,5 25 13 36 19 S 1012,8 - 0,0
26.01.2020 04:00:00 8,3 7,4 19 11 34 19 S 1013,2 10 0,0
26.01.2020 03:00:00 8,4 7,3 23 13 39 21 S 1013,3 - 0,0
26.01.2020 02:00:00 8,2 7,0 22 12 36 19 S 1013,7 - 0,0
26.01.2020 01:00:00 8,5 7,1 23 12 36 19 SSW 1014,5 10 0,0
26.01.2020 00:00:00 7,9 6,7 26 14 40 21 SSW 1014,8 - 0,0
25.01.2020 23:00:00 7,8 6,9 21 12 37 20 S 1015,1 - 0,0
25.01.2020 22:00:00 7,9 6,8 24 13 38 20 SSW 1015,2 15 0,0
25.01.2020 21:00:00 8,1 7,0 23 12 35 19 SSW 1015,3 - 0,0
25.01.2020 20:00:00 8,0 6,9 24 13 37 20 SSW 1015,5 - 0,0
25.01.2020 19:00:00 7,8 6,6 26 14 39 21 S 1015,5 12 0,0
25.01.2020 18:00:00 7,8 6,7 25 14 39 21 S 1015,3 - 0,0
25.01.2020 17:00:00 7,6 6,4 22 12 31 17 SSW 1015,5 - 0,0
25.01.2020 16:00:00 7,6 6,2 9 5 30 16 S 1015,7 12 0,0
25.01.2020 15:00:00 9,0 6,6 14 8 24 13 SSW 1016,1 - 0,0
25.01.2020 14:00:00 9,6 6,7 4 2 26 14 SW 1016,6 - 0,0
25.01.2020 13:00:00 8,9 6,0 16 8 23 12 SSW 1017,4 12 0,0
25.01.2020 12:00:00 8,9 6,5 4 2 20 11 SSE 1018,1 - 0,0
25.01.2020 11:00:00 8,5 6,6 6 3 14 7 E 1018,2 - 0,0
25.01.2020 10:00:00 5,9 5,3 9 5 19 10 E 1018,3 20 0,0
25.01.2020 09:00:00 3,7 3,3 10 5 16 8 E 1018,5 - 0,0
25.01.2020 08:00:00 3,2 2,8 7 4 10 5 E 1018,6 - 0,0
25.01.2020 07:00:00 4,2 3,6 6 3 8 4 SSE 1018,8 0,8 0,0
25.01.2020 06:00:00 4,6 4,0 0 0 8 5 N 1019,0 - 0,0
25.01.2020 05:00:00 4,8 4,1 7 4 10 5 SSE 1019,1 - 0,0
25.01.2020 04:00:00 4,5 3,8 3 2 13 7 E 1019,7 8 0,0
25.01.2020 03:00:00 3,8 2,9 8 4 17 9 ESE 1020,4 - 0,0
25.01.2020 02:00:00 3,8 2,6 13 7 21 11 SE 1020,6 - 0,0
25.01.2020 01:00:00 4,6 3,1 14 8 28 15 ESE 1020,8 12 0,0
25.01.2020 00:00:00 5,0 3,3 17 9 29 16 E 1020,9 - 0,0
24.01.2020 23:00:00 5,6 3,8 21 11 33 18 E 1021,2 - 0,0
24.01.2020 22:00:00 5,6 3,9 19 11 32 17 E 1021,5 12 0,0
24.01.2020 21:00:00 5,4 3,9 18 10 31 17 E 1021,5 - 0,0
24.01.2020 20:00:00 4,5 3,3 10 6 19 11 E 1021,7 - 0,0
24.01.2020 19:00:00 3,8 2,3 9 5 15 8 ESE 1021,4 6 0,0
24.01.2020 18:00:00 4,7 2,9 13 7 22 12 ESE 1021,1 - 0,0
24.01.2020 17:00:00 6,0 3,7 15 8 29 15 E 1021,5 - 0,0
24.01.2020 16:00:00 7,2 4,3 22 12 32 18 E 1021,3 - 0,0
24.01.2020 15:00:00 8,2 5,0 18 10 26 14 E 1021,6 - 0,0
24.01.2020 14:00:00 8,1 4,9 20 11 27 15 E 1022,0 - 0,0
24.01.2020 13:00:00 8,1 5,2 16 9 25 14 E 1022,6 8 0,0
24.01.2020 12:00:00 6,6 4,6 9 5 23 12 E 1023,4 - 0,0
24.01.2020 11:00:00 6,4 4,6 13 7 22 12 ESE 1023,3 - 0,0
24.01.2020 10:00:00 6,2 4,4 9 5 19 10 E 1023,0 6 0,0
24.01.2020 09:00:00 6,2 4,2 10 5 19 10 ESE 1022,7 - 0,0
24.01.2020 08:00:00 6,7 4,9 9 5 20 11 E 1022,3 - 0,0
24.01.2020 07:00:00 6,6 4,8 8 4 17 9 ESE 1022,4 10 0,0
24.01.2020 06:00:00 6,6 4,4 9 5 22 12 ESE 1022,7 - 0,0
24.01.2020 05:00:00 7,4 5,2 15 8 27 14 E 1023,0 - 0,0
24.01.2020 04:00:00 8,0 5,3 21 11 34 18 E 1023,0 10 0,0
24.01.2020 03:00:00 8,0 5,1 22 12 34 19 E 1023,4 - 0,0
24.01.2020 02:00:00 7,9 5,0 24 13 39 21 E 1024,2 - 0,0
24.01.2020 01:00:00 8,0 4,8 29 16 41 22 E 1024,9 10 0,0
24.01.2020 00:00:00 8,0 4,9 27 15 44 24 E 1025,2 - 0,0
23.01.2020 23:00:00 8,0 4,9 26 14 41 22 E 1025,4 - 0,0
23.01.2020 22:00:00 8,1 5,0 28 15 48 26 ENE 1025,5 10 0,0
23.01.2020 21:00:00 8,0 4,9 35 19 46 25 ENE 1025,4 - 0,0
23.01.2020 20:00:00 7,8 5,1 31 17 49 26 E 1025,7 - 0,0
23.01.2020 19:00:00 7,4 4,9 37 20 54 29 E 1025,7 12 0,0
23.01.2020 18:00:00 7,4 5,0 40 21 53 29 ENE 1026,2 - 0,0
23.01.2020 17:00:00 7,1 4,9 36 20 51 28 ENE 1026,8 - 0,0
23.01.2020 16:00:00 7,5 5,3 32 17 47 26 E 1027,2 14 0,0
23.01.2020 15:00:00 7,8 5,4 34 18 45 25 ENE 1027,9 - 0,0
23.01.2020 14:00:00 8,0 5,3 32 17 46 25 ENE 1028,9 - 0,0
23.01.2020 13:00:00 8,3 5,0 29 16 47 25 ENE 1029,4 14 0,0
23.01.2020 12:00:00 7,6 4,7 34 18 49 26 ENE 1030,1 - 0,0
23.01.2020 11:00:00 7,5 4,4 32 17 45 25 ENE 1030,3 - 0,0
23.01.2020 10:00:00 7,1 4,2 29 16 47 25 E 1030,6 10 0,0
23.01.2020 09:00:00 7,0 4,3 35 19 48 26 ENE 1030,4 - 0,0
23.01.2020 08:00:00 6,7 4,2 31 17 45 24 ENE 1030,5 - 0,0
23.01.2020 07:00:00 6,5 3,8 36 19 51 27 ENE 1030,6 10 0,0
23.01.2020 06:00:00 6,4 3,9 39 21 52 28 ENE 1030,2 - 0,0
23.01.2020 05:00:00 6,2 4,0 35 19 51 28 E 1030,8 - 0,0
23.01.2020 04:00:00 6,5 4,2 37 20 52 28 ENE 1031,3 10 0,0
23.01.2020 03:00:00 6,1 3,6 35 19 52 28 E 1032,4 - 0,0
23.01.2020 02:00:00 6,8 4,5 37 20 54 29 E 1032,5 - 0,0
23.01.2020 01:00:00 7,9 5,9 37 20 55 30 ENE 1032,8 10 0,0

tt = Température de l'air
td = dewpoint
ff = Vitesse du vent
fx = gusts
dd = Direction du vent
ppp = reduced air pressure
vv = visibility
rr = Quantités de précipitations

stations d'obs. à proximité